Location: Unspecified
(0.0000°N, 0.0000°E)
Time: 19:11:04
(UTC+00:00)

COSMOS 2496 - Pass Details

Date: 22 May 2026
Orbit: 1478 x 1511 km, 82.4° (Epoch: 10 June)

Event Time Altitude Azimuth Distance (km) Brightness Sun altitude
Rises 03:14:36 0° 16° (NNE) 4,583 ? -37.5°
Reaches altitude 10° 03:17:51 10° 26° (NNE) 3,607 ? -36.8°
Maximum altitude 03:25:24 34° 87° (E) 2,262 ? -35.1°
Drops below altitude 10° 03:32:58 10° 148° (SSE) 3,632 ? -33.4°
Sets 03:36:12 0° 157° (SSE) 4,619 ? -32.6°
